Regional Weather Roundup
Issued by NWS Albany, NY

Home | Current Version | Previous Version | Graphics & Text | Print | Product List | Glossary On
Versions: 1 2 3 4 5 6 7 8 9 10 11 12 13 14 15 16 17 18 19 20 21 22 23 24 25 26 27 28 29 30 31 32 33 34 35 36 37 38 39 40 41 42 43 44 45 46 47 48 49
000
ASUS41 KALY 251510
RWRALY

NEW YORK STATE HOURLY WEATHER ROUNDUP
NATIONAL WEATHER SERVICE ALBANY NY
1000 AM EST THU DEC 25 2014

NOTE: "FAIR" INDICATES FEW OR NO CLOUDS BELOW 12,000 FEET WITH NO
SIGNIFICANT WEATHER AND/OR NO OBSTRUCTIONS TO VISIBILITY.

NYZ032-033-038>043-046>054-057>066-NYZ062>081-251600-
EAST


CITY           SKY/WX    TMP DP  RH WIND       PRES   REMARKS
ALBANY         MOSUNNY   50  33  52 W20G32    29.61R
GLENS FALLS    CLOUDY    47  32  56 W10       29.59R
POUGHKEEPSIE   CLOUDY    49  34  56 W12G21    29.69R
NEWBURGH       MOSUNNY   46  39  76 W18G25    29.70R
MONTGOMERY     PTSUNNY   49  35  58 W12G20    29.69R
WHITE PLAINS   CLOUDY    48  35  60 W17G29    29.69R
ISLIP          CLOUDY    50  39  66 W10       29.68R
NEW YORK CITY  CLOUDY    50  34  54 W22G31    29.72R
CENTRAL PARK   CLOUDY    50  33  52 W12G29    29.75R
$$

NYZ005>009-017-018-044>046-055-056-251600-
CENTRAL


CITY           SKY/WX    TMP DP  RH WIND       PRES   REMARKS
FULTON         CLOUDY    43  33  68 W20G25    29.67R
SYRACUSE       CLOUDY    43  33  68 W23G33    29.68R
ROME           CLOUDY    43  32  65 W21G30    29.67R
ELMIRA         CLOUDY    43  33  68 W18G28    29.73R
BINGHAMTON     CLOUDY    39  30  70 W18       29.69R WCI  30
MONTICELLO     MOSUNNY   43  34  70 W15G21    29.69R
$$

NYZ026>034-041>043-251600-
NORTH


CITY           SKY/WX    TMP DP  RH WIND       PRES   REMARKS
WATERTOWN      CLOUDY    44  33  65 SW21G37   29.61R
FORT DRUM      NOT AVBL
MASSENA        CLOUDY    42  33  70 SW23G41   29.48R
SARANAC LAKE   MIX PCPN  36  32  85 W20G28    29.48R WCI  25
PLATTSBURGH    PTSUNNY   45  32  60 SW10G22   29.45R
$$

NYZ001>004-010>016-019>021-251600-
WEST


CITY           SKY/WX    TMP DP  RH WIND       PRES   REMARKS
NIAGARA FALLS  CLOUDY    40  34  79 W24G37    29.72R WCI  29
BUFFALO        CLOUDY    40  34  79 SW30G41   29.72R WCI  28
DUNKIRK        CLOUDY    40  34  79 SW21G36   29.79R WCI  30
JAMESTOWN      CLOUDY    36  28  75 W22G31    29.78R WCI  24
WELLSVILLE     FLURRIES  35  31  85 W15G25    29.72R WCI  25
ROCHESTER      CLOUDY    42  33  70 W24G32    29.69R
PENN YAN       CLOUDY    42  32  67 SW15G25   29.70R
$$

             KEY
       WCI = WIND CHILL INDEX
       VSB = VISIBILITY
       HX  = HEAT INDEX
$$



USA.gov is the U.S. government's official web portal to all federal, state and local government web resources and services.